Location: ????? ???????
(25.7275°N, 32.5929°E)
Time: 11:48:08
(UTC+00:00)

SJ-11-01 - Pass Details

Date: 02 March 2021
Orbit: 685 x 700 km, 98.0° (Epoch: 16 April)

Event Time Altitude Azimuth Distance (km) Brightness Sun altitude
Rises 16:31:12 0° 157° (SSE) 3,035 7.4 -9.6°
Reaches altitude 10° 16:33:28 10° 152° (SSE) 2,123 6.6 -10.1°
Maximum altitude 16:38:00 54° 76° (ENE) 831 4.4 -11.2°
Drops below altitude 10° 16:42:33 10° 359° (N) 2,139 6.8 -12.2°
Sets 16:44:51 0° 355° (N) 3,061 7.7 -12.7°
